    Fairlamb, M. Huber, Y. Ramanjooloo, R. Wainscoat, R. Weryk, K. Chambers,
    T. de Boer, H. Gao, C.-C. Lin, E. Magnier.  1.8-m Ritchey-Chretien + CCD.
G96 Mt. Lemmon Survey.  Observers J. K. Hogan, R. A. Kowalski.  Measurers E.
    J. Christensen, D. Fay, J. B. Fazekas, D. C. Fuls, A. R. Gibbs, A. D.
    Grauer, H. Groeller, J. K. Hogan, R. A. Kowalski, S. M. Larson, G. J.
    Leonard, D. Rankin, R. L. Seaman, A. Serrano, F. C. Shelly, K. W.
    Wierzchos.  1.5-m reflector + 10K CCD.
T09 Subaru Telescope, Maunakea.  Observer J. Kleyna.  8.20000-m Reflector +
    CCD.
Orbital elements:
2023 KE11                                                                       
Epoch 2023 Sept. 13.0 TT = JDT 2460200.5                Bell                    
M 359.82909              (2000.0)            P               Q                  
n   0.00630243     Peri.   38.15214     +0.92706824     -0.35112957             
a  29.0266855      Node   341.07298     +0.15667939     +0.68118981             
e   0.8190129      Incl.   23.88756     +0.34058193     +0.64240834             
P 156              H   14.66          G   0.15           U   3                  
Residuals in seconds of arc
210706 F51  0.0   0.0     220927 F51  0.0   0.0     230913 F52  0.1+  0.0
210707 F51  0.1-  0.0     220927 F51  0.1-  0.3-    230913 F52  0.1+  0.0
210713 F51  0.1-  0.3+    220927 F51  0.1+  0.1-    230915 G96  0.1+  0.3-
210731 F51  0.2-  0.2+    221017 F51  0.1-  0.2-    230915 G96  0.8+  0.3+
210809 F51  0.1+  0.1+    221017 F51  0.2-  0.0     230915 G96  0.6+  0.1-
210809 F51  0.4+  0.1+    221017 F51  0.1-  0.0     230915 G96  0.8-  0.3-
210809 F51  0.1+  0.1-    221017 F51  0.0   0.0     230918 F52  0.0   0.1-
210809 F51  0.0   0.0     221116 F51  0.1-  0.1-    230918 F52  0.0   0.2+
210810 F51  0.1+  0.0     221204 F52  0.1+  0.1+    230918 F52  0.1+  0.0
210810 F51  0.1+  0.1-    230522 T09  0.0   0.1-    230918 F52  0.0   0.2-
210831 F52  0.2-  0.3-    230522 T09  0.0   0.0     230918 F52  0.2-  0.4+
210831 F52  0.5+  0.1-    230522 T09  0.1+  0.1-    230918 F52  0.3-  0.1-
210831 F52  0.2-  0.2-    230522 T09  0.0   0.1-    230923 F52  0.1-  0.3+
210907 F52  0.1-  0.1+    230522 T09  0.1+  0.1-    230923 F52  0.1+  0.1-
210910 F51  0.1-  0.1+    230522 T09  0.0   0.0     230923 F52  0.0   0.5+
220724 F52  0.0   0.1-    230522 T09  0.1+  0.1-    230925 G96  0.1-  0.1-
220724 F52  0.0   0.2+    230730 F52  0.1+  0.1-    230925 G96  0.0   0.7-
220724 F52  0.0   0.4-    230730 F52  0.2+  0.1-    230925 G96  0.1-  0.1+
220730 F52  0.0   0.0     230730 F52  0.0   0.1+    230925 G96  0.1+  0.2-
220818 F51  0.2-  0.1-    230826 F52  0.1+  0.1-    230925 F52  0.3+  0.1+
220818 F51  0.0   0.3+    230826 F51  0.0   0.2+    230925 F52  0.1+  0.3-
220818 F51  0.1-  0.0     230826 F52  0.1-  0.3-    230925 G96  0.0   0.0
220818 F51  0.1+  0.1+    230826 F52  0.2+  0.0     230925 F52  0.2-  0.2-
220822 F51  0.2-  0.1+    230826 F51  0.1+  0.1+    230925 G96  0.1+  0.5+
220828 F51  0.0   0.1+    230905 F51  0.1+  0.0     230925 G96  0.1-  0.2-
220828 F51  0.0   0.0     230905 F52  0.2-  0.0     230925 G96  0.0   0.2+
220901 F51  0.0   0.0     230905 F51  0.1+  0.0     230926 F52  0.4-  0.2-
220901 F51  0.1+  0.0     230905 F52  0.1-  0.1-    230926 F52  0.0   0.1-
220901 F51  0.1-  0.1-    230905 F51  0.2+  0.1+    230926 F52  0.0   0.1+
220901 F51  0.1-  0.1-    230905 F52  0.1-  0.1-    230926 695  0.1+  0.2+
220914 F52  0.1+  0.1+    230905 F52  0.1-  0.0     230926 F52  0.0   0.0
220922 F51  0.0   0.1+    230907 F51  0.1+  0.1-    230926 695  0.2+  0.0
220922 F51  0.1+  0.0     230907 F51  0.2+  0.1-    230926 695  0.1+  0.1+
220922 F51  0.1-  0.1+    230913 F52  0.1+  0.3-
220927 F51  0.0   0.0     230913 F52  0.1-  0.3-
Ephemeris:
2023 KE11                a,e,i = 29.03, 0.82, 24                 q = 5.2535
Date    TT    R. A. (2000) Decl.     Delta      r    Elong.  Phase     V
2023 08 28    00 50 59.1 +21 46 07   4.5321  5.2616   132.0     8.2    22.1
...
2023 09 12    00 46 01.2 +22 31 03   4.3960  5.2569   145.5     6.2    22.0
...
2023 09 20    00 42 37.2 +22 46 36   4.3451  5.2552   152.3     5.1    21.9
...
2023 09 26    00 39 50.4 +22 54 22   4.3180  5.2543   156.7     4.3    21.8
2023 09 27    00 39 21.9 +22 55 21   4.3145  5.2542   157.4     4.2    21.8
2023 09 28    00 38 53.1 +22 56 14   4.3112  5.2541   158.0     4.1    21.8
...
2023 10 04    00 35 58.3 +22 59 47   4.2973  5.2536   161.0     3.5    21.8
...
2023 10 12    00 32 05.1 +22 59 59   4.2948  5.2535   162.0     3.4    21.8
...
2023 10 27    00 25 25.0 +22 49 18   4.3394  5.2547   154.6     4.7    21.9
M. P. C. Staff               (C) Copyright 2023 MPC           M.P.E.C. 2023-S245
    
    
More information about the Iaude
mailing list